Location: Unspecified
(0.0000°N, 0.0000°E)
Time: 04:01:18
(UTC+00:00)

Transit 2A - Visible Passes

Search period start: 25 November 2017 00:00
Search period end: 05 December 2017 00:00
Orbit: 591 x 968 km, 66.7° (Epoch: 24 November)

Date Brightness Start Highest point End Pass type
(mag) Time Alt. Az. Time Alt. Az. Time Alt. Az.
25 Nov 8.9 04:01:42 10° NE 04:03:11 11° ENE 04:04:36 10° E visible
25 Nov 8.7 18:16:08 10° WSW 18:19:24 17° WNW 18:22:53 10° NNW visible
26 Nov 6.1 05:06:40 10° NNW 05:12:24 84° WSW 05:17:32 10° SSE visible
27 Nov 6.6 04:32:46 10° N 04:38:24 58° ENE 04:43:26 10° SSE visible
28 Nov 7.5 04:00:06 14° N 04:04:20 34° ENE 04:09:01 10° SE visible
29 Nov 8.2 03:28:09 17° NE 03:30:15 21° ENE 03:34:08 10° ESE visible
29 Nov 7.1 05:08:44 10° NW 05:13:12 26° WSW 05:17:24 10° SSW visible
30 Nov 8.7 02:56:08 12° ENE 02:56:08 12° ENE 02:58:16 10° E visible
30 Nov 6.4 04:36:42 26° NW 04:39:16 43° WSW 04:44:04 10° S visible
01 Dec 5.9 04:04:35 63° NW 04:05:19 74° WSW 04:10:22 10° SSE visible
02 Dec 6.6 03:32:22 52° ESE 03:32:22 52° ESE 03:36:20 10° SSE visible
03 Dec 8.2 03:00:03 22° ESE 03:00:03 22° ESE 03:02:00 10° SE visible
03 Dec 7.9 04:40:36 13° WSW 04:40:36 13° WSW 04:42:20 10° SW visible
04 Dec 7.7 04:08:12 17° SW 04:08:12 17° SW 04:09:59 10° SSW visible
